User: anonymous   Login
Location: Unspecified
(0.0000°N, 0.0000°E)
Time: 04:19:24
(UTC+02:00)
Language:

Iridium 39 - Orbit

View from above orbital plane
View from above orbital plane
View from above satellite
View from above satellite

Ground track
Ground track

The orbit data is extracted from the following two-line orbital elements,

1 25042U 97069D   16121.60074675  .00000266  00000-0  88048-4 0  9996
2 25042  86.4032 194.6741 0002143  99.5707 260.5731 14.34219116967173
Epoch (UTC): 30 April 2016 14:25:04
Eccentricity: 0.0002143
inclination: 86.4032°
perigee height: 776 km
apogee height: 779 km
right ascension of ascending node: 194.6741°
argument of perigee: 99.5707°
revolutions per day: 14.34219116
mean anomaly at epoch: 260.5731°
orbit number at epoch: 96717

The dashed part of the orbit path shows where the satellite is in the earth's shadow,  

DLR